Weather History for Hallock, MN

Change the Weather History Date:

Thursday, March 7, 2013

  Actual Average Record
Temperature  
Mean Temperature 13 °F -  
Max Temperature 28 °F 24 °F 42 °F (1987)
Min Temperature -2 °F 2 °F -29 °F (1939)
Degree Days  
Heating Degree Days 52    
Moisture  
Dew Point 13 °F    
Average Humidity 82    
Maximum Humidity 93    
Minimum Humidity 64    
Precipitation  
Precipitation 0.00 in - - ()
Sea Level Pressure  
Sea Level Pressure 30.24 in    
Wind  
Wind Speed 10 mph (SE)    
Max Wind Speed 20 mph    
Max Gust Speed 21 mph    
Visibility 10 miles    
Events      
Averages and records for this station are not official NWS values.
T = Trace of Precipitation, MM = Missing Value Source: NWS Daily Summary

Daily Weather History Graph

Daily Weather History Graph

Search for Another Location

Airport:

Trip Planner

Search our weather history database for the weather conditions in past years. The results will help you decide how hot, cold, wet, or windy it might be!

Date:

Astronomy

Mar. 07, 2013 Rise Set
Actual Time 6:56 AM CST 6:21 PM CST
Civil Twilight 6:25 AM CST 6:52 PM CST
Nautical Twilight 5:49 AM CST 7:29 PM CST
Astronomical Twilight 5:12 AM CST 8:06 PM CST
Moon 4:15 AM CST (3/7) 1:53 PM CST (3/7)
Length of Visible Light 12h 27m
Length of Day
11h 24m
Waning Crescent, 20% of the Moon is Illuminated
Mar 7
Waning Crescent
Mar 11
New
Mar 19
First Quarter
Mar 27
Full
Apr 2
Last Quarter

Hourly Weather History & Observations

Time (CST) Temp. Windchill Dew Point Humidity Pressure Visibility Wind Dir Wind Speed Gust Speed Precip Events Conditions
12:14 AM 8.6 °F -5.5 °F 6.8 °F 92% 30.30 in 10.0 mi East 10.4 mph - N/A   Clear
12:34 AM 6.8 °F -3.5 °F 5.0 °F 92% 30.31 in 10.0 mi East 5.8 mph - N/A   Clear
12:54 AM 3.2 °F -7.8 °F 1.4 °F 92% 30.32 in 10.0 mi East 5.8 mph - N/A   Clear
1:14 AM 5.0 °F -8.1 °F 3.2 °F 92% 30.32 in 10.0 mi East 8.1 mph - N/A   Clear
1:34 AM 1.4 °F - -2.2 °F 85% 30.32 in 10.0 mi Calm Calm - N/A   Clear
1:54 AM -0.4 °F - -4.0 °F 85% 30.32 in 10.0 mi Calm Calm - N/A   Clear
2:14 AM -2.2 °F -12.5 °F -5.8 °F 85% 30.31 in 10.0 mi East 4.6 mph - N/A   Clear
2:34 AM 6.8 °F -5.9 °F 5.0 °F 92% 30.30 in 10.0 mi ESE 8.1 mph - N/A   Clear
2:54 AM 8.6 °F -2.6 °F 6.8 °F 92% 30.30 in 10.0 mi ESE 6.9 mph - N/A   Clear
3:14 AM 8.6 °F -3.7 °F 6.8 °F 92% 30.29 in 10.0 mi ESE 8.1 mph - N/A   Clear
3:34 AM 12.2 °F -1.8 °F 10.4 °F 92% 30.29 in 10.0 mi SE 11.5 mph - N/A   Clear
3:54 AM 14.0 °F -0.2 °F 12.2 °F 93% 30.29 in 10.0 mi ESE 12.7 mph - N/A   Clear
4:14 AM 14.0 °F -0.2 °F 12.2 °F 93% 30.28 in 10.0 mi ESE 12.7 mph - N/A   Clear
4:34 AM 14.0 °F -0.2 °F 12.2 °F 93% 30.28 in 10.0 mi ESE 12.7 mph - N/A   Clear
4:54 AM 15.8 °F 3.4 °F 10.4 °F 79% 30.28 in 10.0 mi ESE 10.4 mph - N/A   Clear
5:14 AM 12.2 °F -1.0 °F 8.6 °F 85% 30.28 in 10.0 mi ESE 10.4 mph - N/A   Clear
5:34 AM 15.8 °F 1.4 °F 10.4 °F 79% 30.29 in 10.0 mi SE 13.8 mph - N/A   Clear
5:53 AM 15.8 °F 1.4 °F 10.4 °F 79% 30.28 in 10.0 mi SE 13.8 mph - N/A   Clear
6:14 AM 15.8 °F 1.4 °F 10.4 °F 79% 30.28 in 10.0 mi SE 13.8 mph - N/A   Clear
6:34 AM 14.0 °F 0.5 °F 10.4 °F 86% 30.27 in 10.0 mi ESE 11.5 mph - N/A   Clear
6:53 AM 12.2 °F -0.2 °F 8.6 °F 85% 30.28 in 10.0 mi ESE 9.2 mph - N/A   Clear
7:14 AM 10.4 °F -3.3 °F 6.8 °F 85% 30.28 in 10.0 mi ESE 10.4 mph - N/A   Clear
7:34 AM 12.2 °F 0.7 °F 8.6 °F 85% 30.28 in 10.0 mi ESE 8.1 mph - N/A   Clear
7:53 AM 15.8 °F 0.9 °F 10.4 °F 79% 30.28 in 10.0 mi SE 15.0 mph - N/A   Clear
8:14 AM 15.8 °F 0.9 °F 10.4 °F 79% 30.28 in 10.0 mi SE 15.0 mph - N/A   Clear
8:34 AM 15.8 °F 0.3 °F 10.4 °F 79% 30.28 in 10.0 mi SE 16.1 mph 20.7 mph N/A   Clear
8:53 AM 17.6 °F 2.7 °F 10.4 °F 73% 30.27 in 10.0 mi SE 16.1 mph - N/A   Clear
9:14 AM 17.6 °F 3.7 °F 12.2 °F 79% 30.28 in 10.0 mi SE 13.8 mph - N/A   Clear
9:34 AM 17.6 °F 3.7 °F 12.2 °F 79% 30.28 in 10.0 mi SE 13.8 mph - N/A   Clear
9:53 AM 19.4 °F 5.5 °F 12.2 °F 74% 30.29 in 10.0 mi SE 15.0 mph - N/A   Clear
10:14 AM 19.4 °F 5.0 °F 12.2 °F 74% 30.27 in 10.0 mi SE 16.1 mph - N/A   Clear
10:34 AM 21.2 °F 7.8 °F 15.8 °F 80% 30.27 in 10.0 mi SE 15.0 mph - N/A   Clear
10:53 AM 21.2 °F 8.3 °F 15.8 °F 80% 30.27 in 10.0 mi SE 13.8 mph - N/A   Clear
11:14 AM 23.0 °F 10.1 °F 15.8 °F 74% 30.26 in 10.0 mi SE 15.0 mph - N/A   Clear
11:34 AM 23.0 °F 8.3 °F 17.6 °F 80% 30.25 in 7.0 mi SE 19.6 mph - N/A   Clear
11:53 AM 24.8 °F 10.7 °F 17.6 °F 74% 30.25 in 10.0 mi SE 19.6 mph - N/A   Clear
12:14 PM 24.8 °F 10.7 °F 17.6 °F 74% 30.25 in 10.0 mi SE 19.6 mph - N/A   Clear
12:34 PM 24.8 °F 11.5 °F 17.6 °F 74% 30.24 in 10.0 mi SE 17.3 mph - N/A   Clear
12:53 PM 24.8 °F 11.9 °F 17.6 °F 74% 30.25 in 10.0 mi SE 16.1 mph - N/A   Clear
1:14 PM 24.8 °F 12.9 °F 17.6 °F 74% 30.24 in 10.0 mi SE 13.8 mph - N/A   Clear
1:34 PM 24.8 °F 12.9 °F 17.6 °F 74% 30.23 in 10.0 mi SE 13.8 mph - N/A   Clear
1:53 PM 24.8 °F 12.9 °F 17.6 °F 74% 30.23 in 10.0 mi SE 13.8 mph - N/A   Clear
2:14 PM 26.6 °F 15.7 °F 19.4 °F 74% 30.22 in 10.0 mi SE 12.7 mph - N/A   Clear
2:34 PM 26.6 °F 15.2 °F 19.4 °F 74% 30.21 in 10.0 mi SE 13.8 mph - N/A   Clear
2:53 PM 26.6 °F 15.2 °F 19.4 °F 74% 30.20 in 10.0 mi SE 13.8 mph - N/A   Clear
3:14 PM 28.4 °F 16.6 °F 17.6 °F 64% 30.19 in 10.0 mi SE 16.1 mph - N/A   Clear
3:34 PM 28.4 °F 17.5 °F 19.4 °F 69% 30.19 in 10.0 mi SE 13.8 mph - N/A   Clear
3:53 PM 28.4 °F 19.1 °F 19.4 °F 69% 30.19 in 10.0 mi SE 10.4 mph - N/A   Mostly Cloudy
4:14 PM 28.4 °F 18.5 °F 21.2 °F 74% 30.20 in 10.0 mi SE 11.5 mph - N/A   Overcast
4:34 PM 28.4 °F 19.7 °F 21.2 °F 74% 30.19 in 10.0 mi SE 9.2 mph - N/A   Overcast
4:53 PM 28.4 °F 19.7 °F 21.2 °F 74% 30.19 in 10.0 mi SE 9.2 mph - N/A   Overcast
5:14 PM 28.4 °F 19.7 °F 21.2 °F 74% 30.19 in 10.0 mi SE 9.2 mph - N/A   Overcast
5:34 PM 28.4 °F 20.4 °F 21.2 °F 74% 30.19 in 10.0 mi SE 8.1 mph - N/A   Overcast
5:54 PM 28.4 °F 20.4 °F 21.2 °F 74% 30.19 in 10.0 mi SE 8.1 mph - N/A   Overcast
7:34 PM 19.4 °F 11.5 °F 15.8 °F 86% 30.19 in 10.0 mi SSE 5.8 mph - N/A   Clear
7:54 PM 17.6 °F 9.3 °F 14.0 °F 86% 30.18 in 10.0 mi South 5.8 mph - N/A   Clear
8:14 PM 15.8 °F 7.2 °F 12.2 °F 86% 30.19 in 10.0 mi South 5.8 mph - N/A   Clear
8:34 PM 14.0 °F 3.9 °F 12.2 °F 93% 30.18 in 10.0 mi SSE 6.9 mph - N/A   Clear
8:54 PM 15.8 °F 5.1 °F 12.2 °F 86% 30.18 in 10.0 mi SSE 8.1 mph - N/A   Mostly Cloudy
9:14 PM 12.2 °F -0.2 °F 10.4 °F 92% 30.18 in 10.0 mi SSE 9.2 mph - N/A   Overcast
9:34 PM 14.0 °F 1.2 °F 10.4 °F 86% 30.18 in 10.0 mi South 10.4 mph - N/A   Overcast
9:54 PM 15.8 °F 6.1 °F 12.2 °F 86% 30.18 in 10.0 mi SSE 6.9 mph - N/A   Overcast
10:14 PM 17.6 °F 5.7 °F 15.8 °F 93% 30.17 in 10.0 mi SSE 10.4 mph - N/A   Overcast
10:34 PM 21.2 °F 7.8 °F 17.6 °F 86% 30.16 in 10.0 mi South 15.0 mph - N/A   Overcast
10:54 PM 21.2 °F 9.5 °F 17.6 °F 86% 30.17 in 10.0 mi South 11.5 mph - N/A   Overcast
11:13 PM 21.2 °F 8.9 °F 17.6 °F 86% 30.17 in 10.0 mi South 12.7 mph - N/A   Overcast
11:34 PM 21.2 °F 8.9 °F 19.4 °F 93% 30.16 in 10.0 mi SSE 12.7 mph - N/A   Overcast
11:54 PM 21.2 °F 9.5 °F 19.4 °F 93% 30.17 in 10.0 mi South 11.5 mph - N/A   Overcast